Theta_e
328 328 327 326 325 325 324 322 320 316 312 311 311 313 314 316 317 318 318 318 318 317 317 316 315 315 315 314 313 313 313 313 313 312 312 312 311 308 307 306 305 305 305 306 305 305 305 304 304 303 303 304 305 306 307 308 308 309 309 309 309 309 308 308 307 306 305 306 309 312 313 313 313 313 312 311 311 311 311 311 311 311 311 311 312
326 327 326 325 325 324 322 320 317 315 313 313 312 312 312 312 313 315 317 317 316 316 315 314 314 314 314 313 313 313 313 313 312 312 311 311 309 307 305 304 303 303 303 303 303 303 303 303 303 303 304 306 307 308 308 309 309 309 310 310 310 310 310 310 309 308 307 307 307 309 310 311 311 311 309 308 308 308 308 308 307 307 308 307 308
326 326 326 325 324 322 321 319 316 315 315 314 312 312 312 311 311 313 314 314 314 314 313 313 313 314 313 313 313 313 313 313 312 311 311 310 309 307 306 304 303 303 303 304 304 304 304 305 305 305 306 308 309 309 309 309 309 310 310 310 310 310 310 310 310 310 310 309 308 308 308 309 309 309 308 308 307 308 308 308 308 307 307 306 306
326 326 325 324 323 322 320 318 316 316 316 314 313 313 313 312 312 312 312 311 310 311 312 313 314 313 313 313 313 313 313 312 312 310 310 309 309 308 305 304 303 304 304 305 305 305 306 306 307 307 308 309 309 309 309 310 310 310 310 310 310 310 310 310 310 310 310 310 310 309 309 309 309 309 309 308 308 308 308 309 309 309 308 308 307
326 326 325 324 322 321 319 317 317 317 316 314 314 314 313 313 312 312 312 311 310 310 312 313 314 314 314 313 313 313 312 312 311 310 308 308 308 307 305 304 304 304 305 306 306 307 308 308 309 309 309 309 310 310 310 310 310 310 310 310 310 310 310 310 310 310 310 310 310 309 309 309 309 309 309 309 309 308 308 308 308 309 309 308 308
325 325 324 323 322 321 319 318 318 317 316 315 315 315 315 314 313 313 313 313 312 312 311 311 311 312 312 312 312 312 311 310 310 308 306 306 307 306 305 304 305 305 306 307 308 309 309 309 309 309 310 310 310 310 310 310 310 310 310 310 310 310 311 311 310 310 310 310 309 309 309 309 309 309 309 309 309 309 309 308 309 309 309 308 308
326 325 324 323 322 320 318 318 318 318 317 315 315 315 315 315 314 314 314 314 314 313 313 311 310 310 310 310 310 310 310 309 309 308 308 307 307 306 305 305 306 307 308 309 309 310 310 310 310 310 310 310 310 310 310 311 311 311 311 311 311 311 311 311 311 311 310 310 310 310 309 309 309 309 309 309 310 310 310 310 310 310 309 309 309
326 325 324 323 322 320 318 319 318 318 317 315 315 315 316 316 315 315 315 314 314 314 314 313 312 312 311 311 310 310 309 309 310 310 310 310 309 307 305 306 307 308 309 310 310 310 310 310 310 310 310 310 311 310 311 311 311 311 311 311 311 311 311 311 311 311 311 311 310 310 310 310 310 310 310 310 310 310 310 311 310 310 310 310 310
326 325 324 323 322 320 319 319 319 318 317 316 315 315 316 316 316 315 315 315 315 315 314 314 313 313 313 312 311 310 310 310 311 311 310 310 309 308 306 307 308 309 310 310 310 310 310 310 310 310 311 311 311 311 311 311 311 311 311 311 311 311 311 311 311 312 311 311 311 311 311 310 310 310 310 310 309 307 306 308 309 310 310 310 310
327 325 324 324 322 320 319 319 319 318 318 316 315 316 316 317 317 316 316 316 315 315 315 315 314 314 314 313 312 311 311 311 311 311 311 310 310 309 309 309 310 310 310 310 310 310 310 311 311 311 311 311 311 311 311 311 311 311 311 311 312 312 312 312 312 312 312 311 311 311 311 310 310 309 308 307 307 305 304 305 307 308 308 309 310
327 326 324 324 322 320 319 319 319 318 318 316 315 316 316 317 317 317 316 316 316 316 316 315 315 314 314 314 313 313 312 312 312 312 311 310 310 310 310 310 310 310 310 311 311 311 311 311 311 311 311 311 311 311 311 311 311 312 312 312 312 312 312 312 312 312 312 312 311 311 310 309 308 307 307 306 306 305 304 304 306 307 307 308 310
327 326 324 324 322 320 320 320 319 319 318 316 314 315 316 317 317 317 317 317 316 316 316 316 315 315 314 314 314 314 313 312 312 312 311 311 310 310 311 311 311 311 311 311 311 311 311 311 311 311 311 311 311 311 311 312 312 312 312 312 312 312 312 312 312 312 312 311 310 309 308 308 307 307 307 306 306 305 304 303 305 305 305 307 309
327 326 325 324 322 321 321 321 319 319 318 316 314 315 316 317 317 318 318 317 317 317 317 317 316 316 315 315 315 314 314 313 313 312 312 312 311 311 311 311 311 311 311 311 312 312 312 311 311 311 311 311 311 312 312 312 312 312 312 312 312 312 311 311 311 311 310 310 309 308 308 308 307 307 307 306 305 304 303 302 302 301 300 301 302
327 326 325 324 323 323 323 322 320 319 318 316 314 314 316 317 317 318 318 318 317 317 317 317 317 316 316 316 315 315 315 314 313 313 312 311 311 311 311 311 311 311 311 311 312 312 311 311 311 311 312 312 312 313 313 312 312 311 311 311 311 311 311 310 310 310 309 309 308 308 308 307 307 306 306 304 302 300 299 298 297 297 296 295 296
327 326 325 325 324 324 324 322 320 318 317 315 314 315 316 317 317 318 318 318 318 318 318 318 317 317 317 316 316 315 315 315 314 313 312 311 311 311 311 311 311 311 312 312 312 312 312 312 312 312 312 313 313 313 312 311 311 310 310 310 310 310 310 310 309 309 308 308 307 307 307 306 304 302 301 299 296 295 294 294 294 295 295 294 294
326 326 326 325 324 325 325 323 318 316 316 314 314 315 316 317 317 318 318 318 318 318 318 318 318 318 318 317 317 316 316 316 314 314 313 312 311 311 311 311 311 312 311 311 312 312 312 312 312 312 313 313 313 312 312 311 310 310 310 310 310 310 309 309 308 308 307 307 306 305 303 300 298 296 294 293 292 292 292 292 292 293 293 294 293
326 326 326 326 325 325 326 323 317 314 315 314 315 316 316 317 317 318 318 318 318 318 318 318 318 318 318 318 318 317 317 316 315 314 313 313 312 311 311 311 311 312 311 311 312 312 312 312 312 313 313 313 313 312 311 310 309 309 309 309 309 309 308 308 307 307 305 303 300 298 295 294 293 292 292 292 292 291 291 292 291 292 292 293 293
327 326 326 326 326 326 326 324 317 314 315 315 315 316 316 317 317 317 318 318 318 319 318 318 318 318 318 318 318 318 317 317 316 315 314 313 312 312 312 312 312 312 312 312 312 312 312 312 313 313 313 313 312 311 310 308 308 307 308 308 308 307 307 306 304 302 299 296 294 292 292 292 291 291 291 291 292 292 292 292 292 292 292 292 293
326 326 326 326 327 326 327 325 318 314 315 316 316 316 316 316 317 318 318 319 318 319 319 319 318 318 318 319 319 318 318 317 317 316 315 314 313 314 313 313 313 313 312 312 312 312 313 313 313 313 312 312 311 309 307 306 306 306 306 306 306 305 303 300 297 294 293 292 291 291 291 291 291 291 292 292 292 293 293 293 293 293 293 292 292
327 327 327 327 327 327 327 326 321 315 315 317 316 317 317 317 317 317 318 318 319 319 319 319 319 319 319 319 319 319 319 318 317 316 316 314 314 314 314 313 313 313 313 313 313 313 313 313 313 313 312 311 308 307 305 305 305 306 305 304 302 300 296 294 292 291 291 291 291 291 291 291 292 292 292 293 293 293 293 293 294 293 294 293 293
328 328 328 327 328 327 327 327 324 318 315 316 317 317 318 318 317 318 318 318 319 319 319 319 319 319 319 319 319 319 319 319 318 317 316 316 315 314 314 314 314 314 313 313 313 313 313 313 313 312 310 308 306 305 304 304 305 304 302 299 296 293 292 291 291 291 291 291 291 291 292 292 292 293 293 294 293 294 294 294 294 294 294 293 293
328 328 328 328 328 328 327 327 325 321 317 316 317 317 318 318 318 318 318 318 318 319 319 319 319 319 319 319 319 319 320 319 318 317 316 316 315 315 315 315 314 314 314 313 313 313 313 313 312 309 307 305 304 304 304 304 303 300 297 294 292 291 291 291 291 291 291 291 291 291 292 292 293 293 293 293 293 294 294 294 294 294 293 293 292
328 329 328 328 328 328 327 327 326 324 320 317 317 317 317 318 318 318 318 318 318 319 319 319 319 319 319 319 320 320 320 319 319 318 317 316 316 315 315 315 315 314 314 314 313 313 313 311 309 306 304 303 303 303 303 302 299 295 292 291 291 291 291 290 290 290 290 291 291 291 291 292 292 293 293 293 293 293 294 294 294 294 293 293 292
328 328 329 328 328 328 327 327 326 325 323 319 318 318 318 318 318 318 319 319 319 319 319 319 319 319 320 320 320 320 319 319 319 318 317 317 317 316 315 315 315 314 314 313 313 312 311 309 306 304 303 303 303 302 300 297 293 291 291 291 290 290 290 290 290 290 290 290 290 290 290 291 292 292 292 293 293 293 293 294 294 293 293 292 292
328 327 328 328 328 328 327 326 326 326 325 322 319 318 318 318 318 318 319 319 319 319 319 319 319 319 319 320 320 320 319 319 319 319 318 318 317 316 316 315 315 314 313 313 312 311 308 306 304 303 302 302 302 299 295 292 291 291 290 290 290 290 290 290 290 290 290 289 289 290 290 290 291 291 291 292 292 293 293 293 293 293 292 292 291
328 328 328 328 328 328 327 327 326 326 325 323 320 319 319 319 319 319 319 319 319 319 319 319 319 319 319 320 320 319 319 319 319 319 319 318 318 317 316 315 314 313 313 312 311 308 305 303 302 302 302 301 298 294 291 291 291 290 290 290 290 290 290 290 290 289 289 289 289 289 289 290 290 290 290 290 291 292 292 293 292 292 292 291 290
328 328 328 328 328 327 327 327 326 326 325 323 321 319 319 319 319 319 319 319 319 319 319 319 319 319 319 320 320 320 319 319 319 319 319 319 318 317 315 314 313 312 312 310 307 305 303 302 302 301 300 297 293 291 291 291 290 290 290 290 289 289 289 289 289 289 289 289 289 289 289 289 290 290 289 289 290 291 292 292 292 292 292 291 290
328 328 328 328 327 327 327 326 326 325 325 323 321 320 319 319 319 319 319 319 319 319 319 319 320 320 319 320 320 320 320 319 319 319 319 318 317 315 314 313 312 311 309 307 304 302 301 301 300 299 296 293 291 291 291 290 290 290 290 289 289 289 289 289 289 289 289 288 288 289 289 289 289 289 289 289 290 291 292 292 292 292 292 292 291
328 328 328 328 327 327 327 326 326 325 324 323 322 321 320 320 319 319 319 319 319 319 319 319 319 319 319 320 320 320 320 320 319 318 318 317 316 314 313 312 311 309 306 304 302 301 300 299 297 294 292 291 291 291 290 290 289 289 289 289 289 289 288 288 288 288 288 288 288 288 289 289 289 289 289 290 290 291 291 292 292 292 292 292 291
328 328 328 328 327 327 327 326 326 325 324 323 322 321 321 320 320 320 319 319 319 319 319 319 319 319 320 320 320 320 320 319 318 317 317 315 314 313 312 310 308 305 303 302 300 299 298 296 294 292 291 291 290 290 290 289 289 289 289 288 288 288 288 288 288 288 288 288 288 288 288 289 289 289 289 290 290 291 291 292 292 292 292 292 291
328 328 328 327 327 327 326 326 325 324 324 323 322 322 321 321 321 320 320 320 320 320 319 319 320 319 320 320 320 320 320 319 317 316 315 313 312 311 310 308 305 303 301 300 298 296 295 293 291 291 291 290 290 290 289 289 289 289 288 288 288 288 288 288 288 288 288 288 288 288 288 289 289 289 289 290 290 291 292 292 293 292 292 292 291
327 327 328 327 327 327 326 326 325 325 324 323 323 322 321 321 321 321 321 320 320 320 319 319 320 319 320 320 320 319 319 317 316 314 313 312 311 310 307 305 303 302 300 297 294 293 292 291 291 291 290 290 290 289 289 289 288 288 288 288 288 287 287 287 287 288 288 288 288 288 288 288 288 289 289 290 290 291 292 292 293 293 292 292 292
327 327 327 326 326 326 325 326 325 324 324 323 323 323 322 322 321 321 320 320 320 320 319 320 320 320 320 320 319 319 317 315 314 313 312 311 309 307 305 303 302 301 297 294 292 292 292 291 291 290 290 290 289 289 289 288 288 288 288 288 287 287 287 287 287 287 287 288 288 288 288 288 288 289 289 290 290 291 292 292 292 292 292 293 293
326 326 326 326 326 326 325 326 325 325 325 324 323 323 322 322 322 320 320 320 320 320 320 320 320 320 320 320 319 317 315 314 313 312 311 309 307 305 303 302 301 299 295 292 292 292 291 291 291 290 290 290 289 289 289 288 288 288 288 288 287 287 287 287 287 287 287 287 287 288 288 288 288 288 289 289 290 290 291 291 291 291 292 292 293
326 326 325 325 325 326 325 326 325 325 324 324 323 323 322 322 321 320 320 320 320 320 321 320 320 320 320 318 317 315 313 313 312 311 309 307 305 303 302 302 300 296 293 292 291 291 291 291 290 290 290 289 289 289 289 288 288 288 288 288 287 287 287 287 286 286 287 287 287 287 287 288 288 288 288 288 289 289 290 290 290 290 291 291 292
325 325 325 325 325 325 325 325 325 325 325 324 323 323 322 322 320 320 320 321 320 320 320 320 320 319 318 316 315 313 313 312 312 309 307 304 303 302 301 300 298 294 292 291 291 291 291 290 290 290 290 289 289 289 289 289 289 288 288 287 287 287 287 287 286 286 286 286 287 287 287 287 288 288 288 288 288 288 288 289 289 289 289 290 290
325 325 326 325 325 325 325 325 325 325 325 324 323 323 322 321 320 321 321 320 320 320 320 319 318 316 315 314 313 313 312 312 309 307 305 303 302 301 301 299 296 293 291 291 291 291 290 290 290 290 289 289 289 289 289 289 289 288 288 288 287 287 287 287 286 286 286 286 286 287 287 287 287 288 288 288 288 288 287 287 288 288 289 289 289
325 325 325 324 323 323 323 324 324 325 325 324 323 322 321 321 321 321 320 319 319 318 318 317 315 315 314 313 312 312 312 310 307 305 303 302 301 300 300 298 295 292 291 291 291 291 290 290 289 289 289 289 289 289 289 289 288 288 288 287 287 287 287 287 287 286 286 286 286 286 286 286 286 287 288 288 288 287 287 287 287 288 288 289 289
324 323 322 321 320 320 322 324 324 324 324 323 322 321 321 321 320 319 318 318 317 317 316 315 314 314 313 312 312 312 310 307 305 303 302 302 301 300 299 297 294 291 291 291 291 290 290 289 289 289 289 289 289 289 289 288 288 287 287 287 287 287 287 287 286 286 285 285 285 286 286 286 286 286 287 287 287 287 287 286 286 287 288 288 288
322 320 319 318 319 319 322 324 324 323 323 322 321 321 320 318 318 317 316 316 316 315 315 314 314 313 313 313 312 311 308 305 304 303 302 301 300 299 298 296 293 291 291 290 290 290 289 289 289 289 289 289 289 289 288 288 287 287 287 287 287 287 287 286 286 285 285 285 285 285 285 286 286 286 286 287 287 287 287 286 286 287 288 288 288
319 318 318 319 320 321 322 323 322 321 321 320 319 318 316 316 315 315 315 315 315 315 314 313 313 313 313 313 311 308 306 304 303 302 301 301 300 299 298 295 292 291 290 290 290 289 289 289 289 289 289 289 289 288 288 287 287 287 287 287 286 287 286 286 285 285 284 285 284 284 284 285 285 285 285 286 286 287 287 286 286 286 287 288 288
319 318 318 319 321 322 321 321 320 319 318 317 316 315 314 314 314 315 315 314 314 314 313 313 313 313 313 311 309 306 304 303 302 302 301 301 300 299 297 294 291 291 290 290 289 289 289 289 289 289 289 289 288 288 288 287 287 287 287 286 286 286 286 286 285 285 285 284 284 283 283 284 284 284 285 285 286 286 287 287 286 285 286 287 288
319 318 319 320 321 320 319 318 317 315 315 314 314 314 314 314 314 314 314 314 314 314 313 313 313 313 311 309 306 304 303 303 302 302 301 300 300 299 296 293 291 290 290 289 289 290 290 289 289 289 289 289 288 288 288 287 287 287 287 286 286 286 286 286 285 285 285 284 284 283 283 283 283 283 284 284 285 285 286 286 286 286 286 286 287
318 318 320 320 319 318 316 315 314 314 314 314 314 314 314 314 315 314 314 314 314 313 313 313 313 312 310 307 305 304 303 303 302 302 301 301 300 298 295 292 291 290 290 289 290 290 289 289 289 289 289 289 288 288 287 287 287 287 287 286 286 286 286 285 285 285 285 284 284 283 283 283 283 283 283 283 284 284 285 286 286 286 286 286 286
318 318 319 319 317 316 315 314 314 314 314 314 314 314 314 314 315 315 314 314 314 313 313 313 312 310 308 305 304 303 303 303 302 302 301 300 299 297 294 292 291 290 290 290 290 290 290 289 289 289 289 289 288 288 287 287 287 287 287 286 286 286 286 285 285 285 285 284 284 283 283 283 283 283 283 283 283 283 284 285 286 286 286 285 285
318 318 318 317 316 315 315 315 315 314 314 314 314 314 315 315 315 315 314 314 314 314 313 312 311 309 306 304 304 303 303 302 302 302 301 300 299 296 293 292 291 290 290 290 289 290 289 289 289 289 289 289 288 288 287 287 287 287 287 286 286 286 286 285 285 285 285 285 284 284 284 283 283 283 283 283 283 283 283 284 285 285 286 285 285
317 317 317 316 316 316 315 315 315 315 315 315 314 315 315 316 316 315 315 314 314 313 313 312 310 308 305 304 303 303 302 302 302 301 301 300 298 295 293 292 291 290 290 290 290 290 289 289 289 289 289 289 288 288 288 288 287 287 286 286 286 286 286 286 285 285 285 285 285 284 284 284 284 284 283 283 283 283 283 283 283 284 285 285 285
317 316 316 316 316 316 316 316 317 316 315 314 315 315 316 316 316 315 315 314 314 313 312 311 309 306 304 303 303 303 302 302 302 301 301 299 297 295 293 292 291 290 290 290 290 290 289 289 289 289 289 289 288 288 288 288 287 287 286 286 286 286 286 285 285 285 285 285 285 285 285 285 285 285 284 284 283 283 283 282 282 282 283 284 285
317 316 316 316 316 316 316 316 317 317 315 315 315 316 316 316 315 315 314 314 313 312 311 310 307 305 304 303 303 302 302 302 302 301 300 299 297 295 293 292 291 291 290 290 290 290 289 289 289 289 289 289 288 288 288 288 287 286 286 286 286 286 285 285 285 285 285 285 285 285 285 285 285 285 285 284 284 283 283 282 282 282 282 283 284
317 316 316 316 316 316 316 316 317 318 317 316 315 316 316 316 315 314 314 313 313 312 311 310 307 304 304 304 303 302 302 302 301 301 300 299 296 294 293 292 291 291 290 290 290 290 289 289 289 289 289 289 288 288 288 287 287 286 286 286 286 285 285 285 285 285 285 285 285 285 285 285 285 284 284 284 283 283 283 282 282 282 282 282 283
317 317 317 316 316 317 317 316 317 318 318 317 317 316 315 315 314 314 314 313 312 312 311 309 306 304 304 304 303 302 302 301 301 300 299 298 296 294 293 292 291 291 291 290 290 290 289 289 289 289 289 288 288 288 288 287 286 286 286 286 286 285 285 285 285 285 285 285 285 285 285 285 284 284 284 284 283 283 282 282 282 282 281 281 282
Wind_Speed
8 7 6 4 3 2 1 1 3 4 5 6 4 3 3 3 3 4 6 5 3 2 2 3 3 4 5 6 8 8 8 9 10 10 10 11 11 11 10 10 10 9 9 9 9 9 9 11 13 13 15 18 21 23 24 25 27 27 27 27 28 29 29 28 25 19 15 12 5 4 6 5 4 5 7 11 11 12 14 14 15 16 16 16 16
10 8 8 6 5 4 3 1 2 5 8 9 8 6 5 5 4 5 6 5 3 3 3 3 4 4 5 6 7 7 7 8 9 9 9 9 10 10 11 12 13 14 14 14 14 14 15 16 18 19 19 21 23 24 25 26 27 27 27 28 29 30 31 31 30 26 24 21 14 6 1 2 4 6 7 11 13 12 13 14 14 15 16 17 17
11 10 10 8 6 6 4 1 2 6 9 10 10 10 9 8 7 6 5 4 3 2 3 3 4 4 5 5 6 6 6 8 9 9 8 9 9 10 12 14 15 17 18 18 18 19 19 20 21 21 21 22 23 24 24 25 25 26 27 27 27 28 29 31 31 30 29 26 22 18 14 11 9 8 8 10 11 13 13 14 14 14 13 14 15
12 12 11 9 8 6 4 2 3 6 9 10 10 11 11 10 9 9 8 8 7 5 5 5 5 4 5 5 5 5 7 8 9 10 9 8 9 10 13 15 16 17 18 18 19 20 21 22 22 22 22 23 23 23 23 23 23 24 25 25 26 27 27 28 28 29 29 28 25 20 17 18 19 20 22 17 13 14 16 15 15 15 15 14 13
12 11 11 10 8 6 5 4 4 5 7 9 9 10 11 12 12 12 12 12 11 9 7 6 5 4 4 4 5 5 6 7 9 11 10 9 10 11 14 16 16 16 17 17 19 21 22 22 22 22 22 22 21 21 21 22 22 22 23 24 24 25 26 25 25 26 26 26 25 20 16 16 19 25 28 24 20 20 19 19 19 19 18 17 16
12 11 11 10 9 7 7 6 4 4 6 8 8 9 10 12 12 12 12 13 13 13 11 9 7 6 5 5 5 5 6 8 11 13 12 12 12 13 14 15 15 15 16 18 21 22 22 20 20 19 19 19 19 19 20 20 21 22 23 23 23 24 24 24 24 24 23 22 22 20 17 16 20 25 26 27 31 30 26 25 26 25 25 23 23
15 13 12 12 11 10 9 8 5 3 5 7 7 7 8 9 10 10 10 10 12 14 14 14 13 11 10 9 8 8 9 11 13 14 15 14 13 13 14 15 15 16 16 19 20 20 20 18 18 17 17 17 18 18 19 20 20 21 22 22 23 23 23 23 23 22 21 19 18 16 15 15 18 21 23 26 31 35 36 34 32 31 31 31 30
19 17 15 15 13 11 10 8 5 3 4 5 6 6 6 6 7 8 8 8 10 12 14 15 16 16 15 14 12 11 12 13 15 17 17 15 13 13 13 13 14 16 17 18 18 17 17 17 16 16 16 17 18 19 19 20 20 19 19 19 19 20 21 21 20 20 21 20 19 18 18 18 18 20 21 21 24 31 37 39 38 36 36 36 35
22 19 17 16 14 12 9 7 5 4 3 3 4 4 4 4 5 6 6 6 7 9 12 14 15 16 17 16 15 15 15 16 17 18 18 17 16 16 15 14 15 16 16 16 16 16 16 15 15 15 16 17 18 18 17 17 17 16 16 16 16 16 17 18 19 20 21 22 23 23 23 23 23 22 21 20 21 24 28 34 39 41 41 40 38
24 21 18 16 14 11 9 8 7 4 3 2 2 3 3 2 3 4 4 5 6 7 9 11 12 13 15 16 16 16 16 16 17 18 18 18 18 18 18 16 16 16 15 15 15 14 14 15 15 16 17 17 16 15 15 15 16 16 16 16 17 17 17 18 19 20 21 23 24 25 25 25 25 24 22 22 22 23 26 30 35 39 42 44 43
26 23 20 17 14 12 10 10 8 6 5 4 3 3 2 1 1 1 3 4 5 6 7 8 9 11 12 13 14 15 16 16 16 16 17 16 16 16 16 15 15 14 14 14 14 15 15 16 16 16 15 15 14 15 15 16 17 18 18 18 19 20 20 20 21 21 22 23 23 22 21 21 21 22 23 24 25 27 30 33 36 37 40 43 45
27 25 22 19 17 14 13 11 10 8 8 6 5 5 4 2 2 1 1 2 3 4 5 6 6 8 9 11 12 13 15 15 15 15 15 15 14 14 14 14 14 13 13 14 14 15 15 14 13 13 14 14 15 16 16 17 18 19 20 21 22 22 22 22 22 22 22 21 20 19 18 18 18 20 23 25 27 29 32 35 38 40 42 45 46
28 27 24 22 20 16 13 12 11 10 9 7 7 7 5 4 3 3 2 1 2 2 3 4 5 5 7 9 10 11 13 14 14 14 14 13 12 12 12 13 12 12 13 14 14 13 13 12 12 14 15 16 17 17 18 18 20 21 23 23 23 22 21 20 20 19 19 18 18 17 18 19 21 24 26 28 30 32 33 36 39 39 41 45 46
29 28 25 23 21 17 13 11 10 9 9 8 8 7 6 6 5 3 3 3 3 2 2 3 4 4 5 6 8 10 11 12 13 13 13 13 11 10 11 11 10 11 13 14 13 12 11 12 14 16 17 18 18 19 19 21 22 24 24 23 21 19 18 18 17 17 17 18 19 20 22 24 26 28 30 31 32 32 32 33 36 38 40 42 42
30 28 26 23 21 18 13 10 9 8 8 9 9 9 8 7 6 4 4 4 5 4 4 3 4 5 5 6 7 8 9 10 11 11 11 11 10 9 9 9 10 12 14 13 12 11 13 15 16 18 19 19 19 20 21 22 24 24 23 21 19 18 17 17 18 19 20 22 24 26 27 29 30 30 31 31 30 29 28 28 30 34 39 41 41
31 29 26 24 22 19 14 10 8 8 8 9 10 10 9 7 6 5 4 5 6 6 6 5 5 5 5 6 6 7 8 9 9 10 10 10 9 8 8 8 10 12 13 13 13 14 15 17 18 20 20 20 20 21 22 23 23 22 21 20 19 19 20 21 22 24 26 27 29 30 30 30 29 28 27 27 26 26 26 26 26 27 32 38 42
31 30 27 24 23 20 16 11 9 10 10 10 10 9 8 7 6 6 5 6 6 6 6 6 6 6 6 6 7 7 7 7 7 8 8 8 8 7 8 8 10 11 13 14 16 17 17 18 19 20 20 20 21 22 23 23 23 22 21 21 21 22 23 25 26 27 28 29 29 28 27 26 26 25 25 25 25 26 25 26 27 26 26 30 35
31 30 27 25 23 21 18 13 11 11 11 11 10 8 7 7 7 6 6 6 6 7 7 8 8 8 7 7 7 8 7 7 7 6 7 7 7 8 9 10 11 13 15 17 19 20 19 18 19 19 20 21 22 23 23 23 23 23 22 22 23 24 25 27 28 28 28 26 26 25 25 24 24 24 25 25 25 26 27 27 27 27 26 27 27
31 30 28 26 24 22 20 16 13 12 12 11 10 9 8 7 7 6 6 6 6 8 9 10 10 10 9 8 8 9 9 8 7 7 7 7 7 9 10 11 13 15 16 18 20 20 18 18 18 19 21 22 23 24 24 24 23 23 22 23 24 25 27 27 27 26 25 25 24 24 24 24 24 24 24 25 25 25 26 26 26 26 25 26 26
31 30 29 27 25 23 21 18 15 13 13 12 12 11 9 7 7 7 7 7 7 9 10 11 11 11 10 9 9 9 9 9 8 7 8 7 8 10 12 13 15 16 18 19 20 19 17 17 18 20 22 24 24 25 24 23 22 22 23 24 26 26 26 25 25 24 24 24 24 24 24 24 24 25 24 23 23 23 23 23 24 24 23 23 25
31 30 29 27 25 23 22 19 17 15 14 14 14 13 11 9 8 8 8 8 9 9 10 11 11 11 11 10 10 9 10 10 10 9 9 9 10 12 14 15 17 18 19 20 19 18 17 18 20 22 24 25 24 24 22 22 22 23 25 26 25 25 24 24 24 24 23 24 24 24 25 25 24 24 23 22 22 22 23 23 23 24 25 24 24
30 29 28 27 25 23 22 21 19 17 16 17 16 15 13 12 10 10 10 10 9 10 10 11 11 12 12 10 10 10 9 10 10 11 11 11 13 15 16 18 19 20 20 19 18 18 18 19 22 24 24 24 23 22 21 22 24 25 25 24 24 23 24 24 23 23 24 24 24 24 24 24 22 21 21 21 22 23 23 23 24 25 26 26 23
28 28 27 26 24 22 22 21 21 20 18 18 18 17 16 14 12 11 11 10 10 10 11 12 12 12 12 11 10 10 10 11 11 12 13 14 15 16 17 19 20 20 19 18 17 17 19 21 23 23 23 22 21 21 22 24 24 24 23 22 23 23 23 23 23 23 24 23 23 23 23 23 22 21 21 21 22 22 21 21 23 24 26 27 24
27 27 26 25 24 23 23 22 22 22 20 19 19 19 18 16 14 13 12 11 11 11 11 12 12 12 12 11 10 10 11 12 13 14 15 16 17 18 18 19 20 19 17 16 16 17 20 22 22 21 21 20 20 21 23 23 22 21 21 22 22 22 22 22 23 22 22 23 23 24 24 24 24 23 24 23 23 22 22 24 25 26 26 27 25
27 26 26 26 25 24 23 22 22 22 21 20 20 20 19 17 15 14 13 12 12 12 12 12 12 12 12 11 11 11 11 12 14 15 17 18 19 20 19 19 18 16 15 15 16 19 20 20 20 20 19 19 21 22 22 21 20 20 21 21 21 21 21 21 21 22 22 24 25 26 26 26 25 26 26 25 26 26 27 28 27 27 28 28 27
26 26 25 25 24 24 22 22 21 21 21 21 20 20 19 18 17 15 14 14 14 14 13 13 13 13 12 11 12 12 11 13 16 17 18 20 20 20 19 17 15 14 14 15 18 19 19 19 19 19 19 20 21 21 20 19 19 20 20 20 20 20 21 20 21 22 23 25 26 26 27 26 25 25 24 23 26 29 29 30 28 28 29 29 29
24 24 24 24 24 23 22 22 21 21 21 21 20 20 19 18 18 16 15 15 16 16 16 15 16 15 13 13 14 14 13 15 17 18 19 20 19 18 16 14 12 13 14 17 18 18 18 18 18 18 19 20 20 19 18 18 19 19 19 19 20 20 20 20 21 23 24 25 26 26 27 26 21 20 21 21 25 29 29 29 29 29 29 29 30
24 24 25 25 23 22 22 22 21 21 21 21 20 19 19 18 17 15 15 15 16 17 18 17 18 18 16 14 14 15 16 16 17 18 19 18 17 15 14 12 12 14 16 17 17 17 17 17 17 18 18 19 18 18 18 18 18 18 19 20 20 20 20 21 22 23 25 26 26 26 27 25 21 21 23 23 26 28 28 29 29 29 30 30 30
24 24 25 24 23 22 21 21 20 21 22 21 20 19 18 17 17 15 15 15 16 17 18 18 19 20 17 15 14 16 18 18 18 18 17 16 15 13 11 11 12 15 16 16 16 16 16 16 17 17 17 17 17 17 17 17 18 19 20 20 21 21 21 22 23 24 25 26 27 27 26 25 24 25 26 26 26 27 27 28 29 29 29 29 29
22 22 23 22 21 21 20 20 20 20 21 20 19 17 16 16 16 16 16 17 18 18 18 17 19 20 18 16 15 17 19 19 18 17 15 14 12 10 10 11 14 15 15 15 15 15 15 16 16 16 16 16 16 16 16 17 18 19 19 20 21 21 22 24 24 25 26 26 27 27 27 26 26 27 28 27 28 27 26 25 26 26 27 27 27
20 20 21 20 20 20 21 20 20 20 20 20 19 17 16 16 16 17 18 19 20 20 18 17 18 19 17 15 16 18 19 18 16 14 13 11 9 9 11 13 14 14 14 14 14 14 14 15 15 15 15 15 16 16 16 17 18 18 19 20 21 22 23 24 25 26 27 28 28 28 28 28 28 29 29 28 29 29 27 25 24 24 24 22 22
19 20 20 20 20 20 21 20 20 20 20 20 19 18 16 16 16 18 19 17 18 19 18 17 17 17 16 15 17 19 18 16 14 13 11 9 8 10 12 13 13 13 13 13 13 13 13 13 14 14 15 15 16 16 16 17 17 18 19 20 21 23 24 24 25 26 27 28 29 29 29 29 29 29 29 29 30 30 27 25 25 26 23 20 18
19 20 20 20 21 20 20 19 18 19 20 19 19 18 17 17 17 18 16 15 16 17 16 16 15 15 15 16 18 18 16 15 13 10 8 8 9 11 11 11 11 11 12 11 11 12 12 13 13 13 14 15 15 15 16 16 17 18 19 21 22 23 24 25 25 27 27 28 30 30 30 30 30 29 29 30 31 30 29 27 26 26 25 23 21
18 20 20 20 21 21 21 20 19 18 19 19 19 19 18 19 18 16 14 15 16 16 15 15 14 14 15 17 18 17 15 13 11 8 8 9 10 10 10 10 10 10 11 11 11 12 12 12 13 13 13 14 14 15 15 16 17 18 19 21 22 22 23 24 26 26 27 28 29 30 31 31 31 31 30 30 30 31 31 30 28 27 27 27 26
20 20 20 20 20 21 21 21 20 19 19 19 19 18 17 18 16 14 15 15 15 15 15 14 14 15 16 17 17 16 13 11 8 7 8 8 9 9 9 9 9 10 10 10 11 11 12 12 13 13 13 13 14 15 15 16 17 18 20 21 21 22 23 24 25 26 26 27 28 29 31 31 31 31 30 30 30 31 32 33 31 29 28 28 28
20 19 18 18 18 20 21 21 22 21 21 20 19 18 16 16 16 15 15 14 14 14 14 15 15 16 17 17 16 14 11 8 7 8 8 8 8 8 8 8 9 10 10 10 11 11 12 12 12 12 12 13 14 15 16 17 18 19 20 21 21 22 24 24 25 25 26 26 27 29 30 31 31 31 31 30 31 32 33 34 35 33 31 28 27
19 18 18 18 19 21 22 22 23 24 23 21 19 18 17 16 16 15 14 13 14 15 15 16 16 16 17 16 14 11 8 7 7 7 7 7 7 7 7 8 9 10 10 10 11 11 11 11 11 11 12 13 15 15 16 17 18 19 20 20 21 22 23 24 25 26 26 25 26 28 29 31 31 31 31 31 31 32 34 35 36 36 35 32 29
17 17 16 16 16 17 18 18 19 22 22 21 19 18 17 16 15 15 14 14 15 16 16 16 16 17 16 14 11 8 7 6 6 6 6 6 6 6 7 9 10 10 10 10 10 10 9 9 10 12 13 14 15 15 16 17 18 19 20 21 22 22 23 24 25 25 25 25 25 27 28 30 31 31 31 31 31 32 34 35 36 37 38 37 34
13 12 12 12 13 12 11 10 13 17 19 19 18 18 16 15 14 14 15 15 16 16 16 16 17 17 15 12 9 7 6 6 6 6 5 5 4 6 8 9 10 9 9 9 9 9 9 9 11 13 13 14 15 16 17 18 19 20 20 21 22 22 23 24 25 25 26 26 26 27 27 28 30 30 30 31 31 31 32 33 35 36 38 39 38
13 11 10 10 9 7 6 8 13 17 19 18 17 16 14 14 14 14 15 15 16 16 17 17 17 16 13 10 7 6 7 6 6 5 3 3 4 6 9 9 9 8 8 8 8 8 9 10 11 12 13 14 15 16 17 18 19 20 21 21 22 23 24 25 26 26 27 28 28 27 27 28 29 30 31 30 30 30 31 32 33 35 36 38 38
13 11 9 8 7 6 8 12 16 18 18 17 15 14 14 13 13 13 14 15 16 17 18 18 16 14 11 9 7 6 6 5 4 3 2 3 5 7 9 9 8 7 7 7 7 8 9 10 11 12 13 14 15 16 17 18 19 20 21 22 22 23 24 25 25 26 28 29 29 29 28 28 29 30 30 30 30 30 30 31 32 32 32 33 36
13 11 9 9 11 14 15 17 18 17 16 15 14 13 13 12 11 12 13 15 17 18 18 17 15 12 10 8 7 6 5 4 3 2 2 4 6 8 9 8 7 6 6 6 7 7 9 10 11 12 13 13 15 16 17 18 19 19 20 21 22 23 24 24 25 26 27 28 29 29 28 28 28 29 29 29 30 30 30 30 30 30 30 31 33
14 12 12 13 16 18 18 17 16 15 14 14 13 11 10 9 10 12 14 17 19 19 18 16 13 11 8 7 6 6 5 3 3 2 3 5 7 8 8 7 6 5 5 6 6 8 8 9 11 11 12 13 14 16 17 17 18 19 20 21 21 23 23 24 25 26 27 27 28 28 28 28 28 28 28 28 29 30 30 30 30 30 31 32 33
15 14 16 17 18 19 18 16 14 14 13 12 10 9 8 9 10 13 16 18 19 19 17 15 12 9 7 6 6 6 5 4 2 2 4 6 7 8 7 6 5 4 5 6 7 7 8 9 10 11 12 13 14 15 16 17 17 18 19 20 21 22 22 23 24 24 25 26 27 27 28 27 27 27 26 27 28 29 30 30 30 31 32 33 33
17 18 19 19 18 18 17 15 14 13 12 11 10 8 8 9 11 14 17 19 19 18 16 13 10 8 7 7 7 6 5 4 3 3 5 6 8 8 6 5 4 4 5 6 6 7 7 8 10 11 11 12 13 14 15 16 17 18 19 19 20 21 22 23 23 23 24 25 25 25 25 25 26 27 27 27 28 28 29 30 31 31 31 33 33
21 22 22 20 18 17 16 15 14 14 12 11 10 9 9 10 12 15 17 19 19 18 15 12 10 8 8 8 7 7 6 5 4 4 6 8 8 8 6 4 4 4 5 6 6 7 8 9 9 10 11 11 12 13 14 15 17 17 18 19 21 21 21 22 22 23 23 23 23 23 24 24 25 26 27 27 27 27 27 28 30 31 32 32 33
24 23 23 22 20 18 17 17 16 15 14 13 13 12 11 11 12 14 17 18 18 17 14 11 9 8 8 8 7 7 6 6 5 6 8 9 8 7 6 5 5 5 6 6 6 7 8 9 9 10 10 10 11 12 13 15 16 17 19 20 21 21 21 22 22 23 23 24 24 23 23 23 24 24 25 25 26 27 28 29 30 31 33 32 32
25 24 23 23 21 19 19 18 17 16 16 15 15 14 14 13 13 14 17 18 18 16 13 11 9 8 8 8 8 7 7 6 7 8 9 9 8 7 6 5 5 6 6 6 7 7 8 8 9 10 10 10 11 12 14 15 17 18 20 21 21 22 22 23 24 24 25 25 24 24 23 24 25 25 27 27 28 28 29 30 31 31 32 32 32
26 25 24 22 21 19 19 18 18 17 17 17 17 16 16 16 14 15 17 18 17 15 13 11 9 9 9 8 8 9 8 8 9 10 10 9 9 8 7 6 6 6 7 7 7 7 8 8 9 9 10 11 12 13 14 16 18 19 20 21 22 23 23 24 25 25 25 25 25 25 26 27 28 29 30 31 31 31 30 31 31 32 32 33 34
27 26 24 23 21 19 19 19 19 19 19 18 18 18 18 17 16 16 16 17 17 15 13 12 11 10 9 9 10 10 10 10 11 11 11 10 9 8 8 7 7 7 7 7 7 7 8 8 9 10 10 11 12 13 15 17 18 19 20 22 23 23 23 23 24 25 25 25 25 27 28 29 29 30 31 31 32 32 32 32 32 33 33 33 34
28 27 25 24 23 22 21 21 20 21 21 21 20 20 19 19 18 17 17 16 16 15 14 13 12 11 10 10 11 11 12 12 12 12 12 11 10 9 8 8 8 7 8 8 8 8 8 8 9 10 10 11 12 13 14 16 17 18 20 21 22 22 23 23 24 24 24 25 27 28 29 29 29 29 30 30 31 31 32 32 32 33 33 33 34
Wind_Direction
165 168 169 174 174 164 172 63 2 21 51 52 50 65 97 123 142 134 126 131 132 114 81 61 60 66 71 66 58 57 59 53 48 42 32 27 25 24 26 30 35 38 37 37 37 35 30 33 40 43 42 47 54 58 57 55 53 51 47 44 41 40 39 39 39 40 45 44 56 194 220 242 274 298 319 326 324 327 329 324 319 317 316 315 313
173 176 178 183 186 184 183 154 30 63 69 59 54 61 75 97 126 133 131 136 124 90 69 68 80 84 73 60 58 64 65 52 41 35 29 24 24 28 33 38 47 57 61 59 57 56 55 54 54 54 56 62 63 61 58 55 52 49 46 43 41 38 37 37 36 36 38 41 46 50 12 257 279 288 310 328 332 336 340 338 333 328 327 328 327
180 185 184 186 192 189 187 170 97 85 69 59 61 64 69 82 97 108 114 118 100 70 62 78 93 86 65 51 52 59 60 51 37 31 29 25 30 37 38 44 55 63 64 61 59 59 60 60 60 63 67 67 63 59 55 52 49 46 43 41 39 37 35 34 33 33 33 34 34 33 30 18 355 330 324 328 336 344 348 349 347 344 342 340 340
189 193 192 193 198 200 200 184 129 90 66 64 67 64 66 76 86 90 84 73 66 58 65 85 93 79 63 52 48 50 54 47 32 28 28 27 35 39 39 49 59 63 62 58 56 58 60 63 66 68 67 63 59 55 51 47 44 41 38 35 33 32 32 30 30 29 28 28 28 26 21 15 5 352 344 339 339 342 341 343 346 346 346 346 346
201 199 200 201 204 207 208 190 147 93 71 71 73 68 67 73 81 85 80 72 68 61 60 74 83 74 58 47 41 38 39 31 22 25 29 30 36 37 42 53 61 64 62 57 59 64 67 69 70 67 62 58 54 49 44 40 37 33 31 28 25 23 23 22 23 24 23 22 23 21 15 5 355 349 345 337 333 334 332 334 338 338 337 337 339
216 212 208 208 207 210 208 193 169 108 84 78 76 73 70 73 77 81 78 72 69 65 62 62 65 65 50 41 38 31 29 28 27 32 38 40 38 38 48 59 65 66 64 64 69 72 72 72 68 63 57 50 44 39 34 30 27 25 22 20 18 16 14 13 13 15 15 14 14 13 8 355 344 343 340 331 328 329 328 330 331 330 329 329 330
218 219 216 213 211 212 206 194 183 131 96 81 78 77 75 76 74 74 73 68 65 63 60 59 61 63 57 50 49 42 38 39 42 46 49 47 40 41 56 67 67 66 69 72 73 71 68 65 60 54 47 39 33 28 23 19 17 15 13 11 10 7 5 4 3 1 0 1 360 357 351 343 336 335 334 330 327 325 324 325 325 325 324 323 324
218 218 217 216 216 215 208 199 192 160 116 86 85 86 79 78 74 72 71 66 62 60 58 58 59 60 58 54 51 48 49 53 56 56 54 49 42 46 59 66 66 69 75 74 69 64 60 55 49 42 34 26 19 15 12 10 8 6 5 4 2 359 354 351 350 347 344 341 339 336 333 329 325 324 324 325 323 319 318 320 320 319 318 318 320
220 220 219 218 217 216 211 204 201 183 142 97 94 96 83 80 77 71 71 68 62 58 58 58 58 57 55 54 55 55 57 59 59 58 57 53 52 57 64 68 72 74 73 67 60 57 52 45 38 27 18 13 9 8 7 4 2 0 359 356 353 350 345 339 336 334 332 329 327 325 323 321 319 319 319 318 318 317 316 316 316 316 317 317 317
221 222 222 220 219 217 212 208 210 201 169 149 128 117 104 90 81 72 70 69 64 58 57 56 55 54 52 52 54 57 58 57 56 57 60 60 60 66 71 72 71 67 61 56 52 45 38 30 21 14 9 6 5 4 1 357 355 352 349 345 342 339 335 330 325 323 321 320 320 320 321 322 323 325 326 326 325 323 320 317 315 316 315 313 313
219 220 221 220 219 215 214 215 215 211 199 197 186 164 152 137 122 86 65 66 65 59 54 53 51 50 49 47 48 52 55 55 54 55 59 61 60 61 63 60 56 52 48 43 35 27 20 13 7 4 2 360 358 354 350 348 347 344 340 337 333 329 325 322 319 316 316 317 320 322 324 327 329 329 328 327 327 325 322 318 315 314 312 308 308
217 217 218 217 214 213 217 220 218 215 214 208 193 186 187 200 224 228 52 56 61 57 48 46 44 43 42 41 40 42 46 50 51 50 52 57 58 53 49 48 47 45 40 31 23 15 7 1 357 355 354 351 347 344 341 340 339 336 333 330 326 323 322 321 321 320 321 322 325 327 327 326 325 325 324 323 322 321 320 317 315 313 310 306 305
215 215 216 214 213 215 221 224 220 219 221 212 196 190 195 210 231 237 249 312 12 38 35 32 31 29 30 32 32 33 35 41 45 46 46 48 53 52 47 47 47 42 32 21 13 3 354 349 347 346 345 342 339 337 336 335 334 332 331 328 327 327 327 329 330 330 330 330 329 327 324 322 321 321 321 319 318 317 316 315 312 311 309 307 306
214 214 214 214 214 217 224 228 226 225 224 215 200 194 199 212 224 227 234 261 291 324 352 7 10 8 10 14 21 25 26 31 38 42 43 43 48 51 49 48 44 31 17 7 357 347 341 339 338 338 337 336 334 333 332 333 333 333 332 331 331 332 333 333 333 332 330 327 325 322 320 320 319 318 317 316 316 316 316 315 313 311 309 307 308
212 214 215 215 216 218 223 229 230 226 219 210 201 198 201 207 217 222 224 246 271 291 311 339 351 345 345 350 360 13 17 22 30 36 38 41 44 47 47 41 27 13 1 351 341 334 334 334 333 332 332 332 331 331 332 333 334 333 332 332 331 332 331 329 328 327 325 324 322 321 320 319 318 317 316 315 315 315 315 315 314 315 314 313 311
211 213 215 216 216 218 221 226 224 215 207 203 198 198 199 200 209 218 225 242 261 277 291 310 323 322 326 330 332 350 7 13 20 28 31 35 38 40 36 23 8 358 346 337 332 330 328 328 329 329 329 329 329 330 331 331 332 331 330 328 327 327 327 326 326 325 324 323 322 320 320 319 319 318 317 317 316 316 315 313 313 317 319 318 316
210 213 215 216 216 218 219 220 213 200 195 194 192 195 198 198 206 218 228 240 254 269 284 294 300 306 311 313 314 327 349 0 8 18 23 25 28 24 12 359 348 339 333 330 329 328 325 323 324 326 326 327 328 329 329 330 330 328 327 326 326 327 326 326 325 324 323 322 322 322 322 323 322 322 321 320 319 318 318 318 317 317 318 318 318
211 214 216 217 218 219 219 217 207 194 189 188 187 192 199 206 215 223 231 241 254 267 279 286 289 293 297 300 306 310 321 338 347 359 10 14 12 358 346 336 328 325 325 325 326 326 324 320 320 323 325 326 327 328 328 328 328 327 326 326 326 326 326 325 324 324 325 326 327 328 328 328 327 326 325 324 324 323 322 322 321 318 317 314 314
210 214 217 219 220 222 222 217 208 197 192 189 188 196 205 214 225 232 237 242 252 262 270 276 279 284 289 292 297 300 306 317 328 337 346 352 346 334 327 322 319 319 320 320 322 322 319 316 318 323 325 326 326 327 328 328 328 327 326 326 327 327 326 327 329 331 333 334 333 333 331 330 330 329 330 329 329 330 328 328 327 325 325 320 317
211 215 218 220 222 225 225 220 213 203 197 195 195 201 206 215 230 240 244 245 250 258 265 270 274 280 285 287 289 294 301 307 313 321 325 323 318 314 312 312 313 314 314 315 317 316 313 314 320 323 325 326 326 326 327 328 327 327 328 329 329 330 332 335 338 338 338 337 336 336 335 335 335 334 335 335 336 336 334 335 334 331 332 329 325
213 216 219 221 223 226 227 223 219 212 207 206 206 207 208 215 231 243 248 250 254 258 264 269 273 278 283 290 293 294 300 304 298 295 302 305 301 300 302 304 305 306 308 311 311 310 312 317 321 323 324 325 325 327 328 328 329 330 331 333 334 337 340 342 342 341 340 341 341 341 340 339 339 338 337 338 339 340 339 340 341 339 338 338 333
216 218 221 223 224 226 227 225 221 217 215 214 214 214 215 219 229 241 248 253 257 259 263 269 275 280 286 295 301 297 298 303 294 282 284 290 291 292 296 297 299 300 303 305 306 308 313 318 321 323 324 326 327 328 329 330 332 333 335 338 341 344 345 344 345 345 345 346 345 343 343 342 341 339 337 337 339 343 345 345 348 348 345 343 338
218 220 223 225 225 227 227 226 223 221 221 220 220 220 221 224 230 239 248 253 256 260 263 268 273 280 285 288 295 297 294 294 292 281 276 280 284 288 292 294 296 297 299 300 302 308 314 318 321 322 324 326 327 329 331 333 335 337 341 345 347 347 347 347 348 349 348 349 348 348 349 349 348 345 343 344 347 348 349 349 352 352 348 344 340
219 222 225 226 226 227 228 228 227 225 226 226 225 225 226 228 231 237 248 255 257 260 263 267 271 277 278 275 279 288 288 285 286 281 275 275 279 283 289 294 294 292 293 296 303 311 316 318 321 323 325 327 329 332 335 337 340 344 348 349 349 349 350 351 351 351 351 352 354 356 356 354 354 354 352 352 354 352 350 352 353 351 347 342 338
220 222 225 226 227 227 228 230 229 229 230 230 230 230 230 230 232 237 247 255 257 260 264 266 269 273 275 274 279 283 279 275 276 277 275 274 276 280 287 290 287 286 290 299 308 314 317 320 322 325 327 329 333 336 339 343 346 349 350 350 350 351 351 351 351 352 355 357 358 359 358 356 356 356 355 354 355 354 351 351 350 346 343 340 336
221 223 225 227 228 229 229 230 231 231 231 232 233 233 234 234 235 238 246 254 257 259 262 265 268 272 272 274 281 284 279 275 274 274 275 275 277 279 282 281 278 283 294 305 313 316 318 322 324 327 330 333 337 341 344 347 348 350 350 350 350 351 351 353 354 356 358 359 360 360 357 356 357 356 354 351 351 352 350 349 347 343 341 338 333
223 225 227 229 231 232 230 230 231 231 231 233 235 237 239 240 241 242 247 255 260 261 262 262 265 269 267 263 271 280 283 281 276 274 273 275 276 274 271 272 278 291 303 311 315 318 320 323 326 329 333 337 342 345 345 346 348 349 350 349 350 352 353 356 357 358 359 358 359 360 358 357 358 354 350 347 346 348 347 346 345 342 339 336 332
223 225 228 231 233 234 233 233 233 230 230 233 236 240 244 247 247 246 248 256 262 265 266 264 263 265 262 258 264 272 278 279 276 273 271 271 269 266 265 273 288 302 310 315 317 320 322 325 328 333 338 343 346 345 343 346 349 350 350 350 351 353 355 358 359 359 358 358 359 359 358 358 358 352 348 347 346 346 345 343 343 343 340 336 333
223 226 229 233 236 237 235 234 231 229 230 233 236 241 245 250 253 251 252 258 263 267 270 267 265 263 259 257 263 268 271 273 272 269 267 264 261 260 267 284 300 310 314 317 319 322 324 327 332 338 343 346 346 343 346 350 351 351 351 351 353 355 357 359 0 360 359 359 360 358 358 359 358 354 351 348 347 347 345 342 343 344 341 337 334
224 228 231 234 237 238 237 233 229 228 229 232 234 238 243 252 259 258 257 260 263 268 271 266 262 262 258 256 263 268 268 266 265 262 257 254 253 261 283 301 309 314 316 319 322 323 326 331 337 343 347 347 347 347 352 354 353 352 352 353 355 357 359 0 1 1 1 1 0 358 357 359 357 355 353 349 347 349 348 346 346 348 344 338 333
228 230 233 235 237 238 237 235 231 227 227 230 232 235 243 254 263 267 267 265 262 264 265 259 257 259 256 252 260 264 262 259 256 251 245 246 258 282 301 308 312 315 318 321 324 325 331 337 343 348 349 349 351 353 356 357 355 353 353 356 358 358 360 1 1 1 1 1 0 359 358 359 358 355 352 349 349 351 352 351 352 353 350 340 332
229 231 234 235 235 237 238 237 233 228 227 229 230 234 243 251 263 273 273 263 254 255 258 255 254 253 248 249 258 259 254 249 243 237 239 255 280 298 306 309 311 317 322 325 327 331 338 344 348 351 351 353 355 356 358 357 355 356 357 358 0 360 0 1 2 3 1 360 359 359 359 359 357 354 351 351 351 351 353 355 354 355 355 348 337
227 230 232 234 234 235 236 235 233 230 228 230 232 236 242 250 263 272 262 242 237 244 252 253 248 243 243 250 256 252 244 238 231 233 250 276 294 301 305 309 313 321 328 331 334 339 344 349 351 353 354 356 357 357 358 358 357 359 1 1 1 1 0 1 2 3 1 359 359 358 358 359 356 354 352 351 350 350 351 354 356 357 358 355 348
225 227 230 234 236 236 235 234 233 232 231 231 233 237 243 251 260 257 237 226 231 240 247 246 239 237 244 250 248 241 233 228 228 244 273 288 298 303 306 310 318 329 336 338 341 343 347 350 352 354 355 356 357 358 359 360 1 2 3 3 2 0 360 1 2 1 360 359 359 357 357 357 356 354 352 349 347 346 347 349 352 355 357 357 354
223 227 230 234 238 240 238 235 234 233 232 232 232 234 241 249 247 233 222 226 235 241 240 236 233 237 244 243 236 227 222 225 241 269 285 294 301 303 307 315 328 339 343 342 343 344 347 350 351 353 355 355 358 0 0 1 3 4 5 4 1 0 0 0 1 1 360 359 357 356 356 356 355 353 351 347 344 343 343 342 344 347 350 352 354
226 230 233 239 247 251 249 243 237 234 232 230 228 229 235 235 225 219 225 233 236 236 231 227 230 235 236 230 223 219 221 238 265 281 289 298 301 303 311 325 339 347 346 343 343 345 347 349 350 351 354 357 1 2 3 4 5 5 6 4 1 1 0 360 0 1 1 359 357 356 356 355 354 353 350 347 344 343 343 342 342 344 345 346 347
234 238 243 249 255 259 259 253 244 236 231 227 225 225 224 220 214 215 224 228 226 225 223 223 228 228 224 218 214 218 235 261 279 288 295 298 299 307 322 337 348 351 346 342 342 343 344 346 348 351 355 1 3 3 4 5 6 6 5 3 2 2 1 0 2 2 2 1 360 358 356 355 354 353 350 347 346 345 345 346 345 346 346 347 347
244 244 245 248 254 257 258 253 242 232 227 221 219 217 212 210 210 212 214 215 216 218 219 222 223 219 214 210 211 228 256 278 288 291 294 297 303 320 337 348 353 350 343 339 338 339 342 346 350 355 0 3 2 3 5 6 6 6 5 4 3 2 1 1 3 3 2 3 4 2 358 356 355 353 351 349 348 348 348 348 349 349 349 352 352
235 233 235 238 244 247 242 233 225 219 212 205 204 203 201 203 206 206 206 209 212 215 218 219 216 211 208 209 220 246 272 285 291 291 292 300 321 340 348 352 352 346 338 334 334 338 345 351 355 359 3 3 2 3 5 6 6 5 4 4 3 1 2 2 2 2 3 5 7 4 360 358 356 354 353 352 351 350 351 352 351 351 352 355 355
206 205 211 220 228 225 202 192 198 196 189 184 187 191 194 198 199 199 203 207 211 214 215 213 210 207 207 216 234 259 275 281 286 292 298 316 340 351 353 351 346 338 332 332 335 342 349 355 358 360 2 2 3 5 6 6 5 3 3 3 2 2 3 3 2 2 3 4 5 3 1 359 357 356 355 355 354 354 355 355 354 354 355 356 357
198 195 190 186 180 165 158 167 177 178 174 175 181 184 187 192 194 197 204 209 212 213 211 208 207 208 213 227 243 259 268 275 284 295 316 340 352 354 351 346 338 331 329 334 340 346 352 355 357 0 2 3 4 7 7 5 3 2 3 3 2 3 4 3 1 2 3 3 2 1 360 359 357 356 356 357 357 357 357 358 359 358 357 355 356
184 178 174 164 154 153 155 161 168 171 171 174 179 182 185 191 197 203 209 212 212 212 210 208 208 212 221 235 248 255 260 268 279 294 329 345 351 351 344 336 328 327 331 338 341 347 352 355 358 0 1 3 6 7 6 4 1 1 3 3 2 3 3 1 1 3 3 2 0 358 358 357 355 354 355 356 358 360 359 359 0 360 357 356 358
177 171 170 165 159 158 159 161 166 171 174 175 178 186 192 200 208 212 213 213 212 210 208 208 210 216 227 238 244 248 252 257 271 299 332 339 342 340 332 323 321 326 332 336 340 346 352 354 357 359 359 1 6 7 4 2 360 1 3 3 2 2 1 359 2 4 3 1 360 358 357 356 355 354 354 354 358 1 2 1 360 360 360 359 0
176 172 171 170 168 163 160 164 169 171 174 177 182 192 204 213 219 220 217 214 211 209 208 210 213 220 230 238 239 239 241 243 261 302 323 327 327 324 319 314 316 325 329 330 336 344 351 354 356 356 357 1 5 5 2 360 360 1 2 2 1 1 360 0 3 3 2 1 0 358 356 355 355 356 356 356 357 0 3 3 2 1 2 2 3
175 174 175 177 176 169 165 169 174 176 178 182 188 199 214 222 225 225 221 216 212 210 210 212 217 225 234 237 233 229 229 234 254 294 309 308 308 310 313 313 314 319 320 322 331 341 349 353 354 354 357 360 3 3 360 359 1 2 1 2 3 1 359 1 2 2 2 1 360 358 356 356 357 360 1 1 0 0 1 3 5 4 4 5 6
180 179 180 181 181 178 174 176 180 183 185 190 197 209 222 231 231 227 222 217 214 213 213 214 221 230 233 232 230 225 224 231 248 274 286 289 295 305 313 313 311 313 310 312 323 338 347 350 351 352 355 358 1 2 1 1 3 3 2 5 5 1 359 1 2 1 1 359 357 357 358 358 1 3 4 4 4 2 1 2 6 7 7 7 8
186 183 182 184 186 185 182 183 188 192 192 197 205 214 224 234 236 229 222 217 215 215 216 218 224 231 230 227 228 228 229 237 253 264 270 276 286 300 308 309 308 307 303 306 317 333 343 345 346 348 351 355 0 4 4 5 5 4 5 8 5 1 1 3 3 2 1 358 357 358 359 360 2 4 5 7 7 6 5 5 6 9 10 10 9
188 187 187 189 191 192 189 190 196 199 200 204 209 216 224 230 233 229 222 218 216 215 217 222 227 230 228 225 227 233 238 247 254 257 262 271 280 289 294 299 302 300 298 302 314 327 336 339 341 345 347 352 360 4 5 6 7 6 7 8 4 1 2 4 4 3 2 358 357 359 0 1 2 4 6 8 10 10 10 9 8 8 10 11 10
190 192 194 196 197 199 198 199 203 206 208 211 214 218 223 226 228 227 222 219 216 214 216 223 226 225 226 228 230 235 241 248 250 252 257 265 272 278 282 287 292 292 294 300 308 320 330 334 338 342 347 353 360 4 7 8 7 6 7 6 3 2 3 4 4 3 1 358 357 1 3 4 4 5 5 7 8 9 10 11 10 9 9 9 10
195 196 199 202 205 207 206 207 210 213 215 218 220 220 220 222 225 225 222 220 218 216 218 223 226 227 230 234 235 236 238 242 246 250 255 260 264 268 272 278 281 283 287 295 304 313 323 332 337 341 348 356 1 5 9 9 5 4 6 6 3 2 3 4 4 3 360 358 1 5 6 6 7 6 5 6 7 7 8 9 11 10 9 9 9
200 201 204 207 210 212 214 215 216 218 221 224 225 221 218 219 222 223 222 221 219 219 222 224 225 228 234 238 238 237 237 239 242 247 253 258 260 263 266 270 275 277 280 288 297 307 318 329 336 340 348 356 0 4 8 7 3 3 5 4 2 1 2 3 4 3 360 360 5 9 8 7 8 8 6 6 7 7 7 7 9 10 10 9 9